Yaogan 30 hao 04 zu 03 xing

operational
NORAD ID: 43172 Int'l Des: 2018-011 Owner: ZLZB Country: CN Constellation: yaogan
LEOCIRCULAR

Über Yaogan 30 hao 04 zu 03 xing

Beschreibung wird geladen...

Live-Position

3D-Globus wird geladen...

Nächste Überflüge

Höhenverlauf

Altitude vs Time

uPlot chart will show altitude changes over time

Zweizeiliger Elementsatz

1 43172U 18011D 26072.27206420 .00003630 00000-0 27213-3 0 9998
2 43172 34.9983 15.3466 0002842 296.1158 63.9257 15.02193121443657
Epoch: 13. März 2026 • Age: 26 hours

Aktueller Status

Höhe 562.1 km
Geschwindigkeit 7.59 km/s
Subsatellitenpunkt 34.63°N, 112.94°W
Startdatum 25. Jan. 2018
Alter 8.1 years
Typ military

Technische Details

Klassifizierung Payload
Masse 500.00 kg
Trockenmasse 500.00 kg
Gesamtmasse 500.00 kg
Länge 0.50 m
Durchmesser 0.50 m
Spannweite 1.00 m
Form Box + 2 Pan
Hersteller SECM
Phasenstatus In Orbit
Besitzer/Staat ZLZB/CN

Große Konstellationen

Loading constellations...